Weather in Tutura

Russia / Irkutsk Oblast     54°47′08″N   105°13′46″E
temp.,
°C
wind,
m/s
gust,
m/s
humid.,
%
clouds,
%
prec.,
mm/h
press.,
hPa
HPBL,
m
8 may, sat
sat823:00+1e228550 0.0 101528
02:00−1e2288100 0.0 101425
05:00−1e1189100 0.0 101420
08:00+4e1161100 0.0 1013298
11:00+9wsw2343100 0.0 10111449
14:00+9w6558100 0.0 10111284
17:00+8nw47615 0.1 1011965
20:00+6nw1171100 0.1 101114
9 may, sun
sun923:00+2nnw009162 0.0 101210
02:00+1ene0195100 0.0 101210
05:00+3sse1190100 0.0 101126
08:00+4wnw1290100 0.8 1011212
11:00+7wnw0275100 0.6 1010802
14:00+7w2382100 1.5 10091010
17:00+8wnw2475100 1.7 10091019
20:00+5nw2687100 2.7 1010694
10 may, mon
mon1023:00+2w229659 0.2 101127
02:00+2wsw1393100 0.2 1011122
05:00+2wsw2496100 0.0 1011236
08:00+2sw2597100 0.3 1012411
11:00+2nw1299100 1.5 1013195
14:00+2sw1198100 3.5 1014212
17:00+4sw119391 1.0 1014281
20:00+5ssw129557 1.2 101544
11 may, tue
tue1123:00+2wsw11966 0.1 101611
02:000w11956 0.1 101711
05:00−1w11956 0.0 101811
08:00+4wnw128122 0.0 1018312
11:00+9nnw355478 0.2 10161736
14:00+11nnw3443100 0.4 10152020
17:00+11n345084 0.7 10141465
20:00+7nnw116552 0.9 101411
12 may, wed
wed1223:00+2ne118689 0.0 101610
02:00+2ene118891 0.0 101610
05:00+1e1192100 0.0 101510
08:00+5se0172100 0.0 1013288
11:00+9nw455871 0.1 10111431
14:00+8nnw346389 0.9 10111311
17:00+7n456084 0.1 10121147
20:00+5nnw246550 0.1 1013381